COSMOS 1275 DEB

基本信息
目录编号:
12710
目录名称:
COSMOS 1275 DEB
国际标识:
1981-053BE
轨道中心:
EARTH
物体状态:
在轨
发射日期:
1981-06-04 UTC
轨道信息
数据来源: 国际轨道数据
星历时间: 2026-09-10T21:20:22+0800
半长轴: 7363.435km
偏心率: 0.0114652
轨道倾角: 83.008°
近地点辐角: 108.376°
升交点赤经: 199.448°
平近点角: 252.991°
近地点: 900.874km
远地点: 1069.722km
周期: 104.805分钟
每日圈数: 13.739853
详细信息
发射场:
PKMTR
轨道高度:
LEO
数据来源:
AOE Integration Group
参考系:
TEME
时间系统:
UTC
历元类型:
SGP4
2D轨道图
3D轨道图
轨道高度分析图
轨道倾角分析图
轨道综合分析图
查看轨道综合分析图